Regional Weather Roundup
Issued by NWS

Home | Current Version | Previous Version | Text Only | Print | Product List | Glossary On
Versions: 1 2 3 4 5 6 7 8 9 10 11 12 13 14 15 16 17 18 19 20 21 22 23 24 25 26 27 28 29 30 31 32 33 34 35 36 37 38 39 40 41 42 43 44 45 46 47 48 49 50
000
ASUS46 KLOX 122013
RWRCA

SOUTHERN CALIFORNIA WEATHER ROUNDUP
NATIONAL WEATHER SERVICE OXNARD CALIFORNIA
1200 PM PST FRI FEB 12 2016

NOTE: "FAIR" INDICATES FEW OR NO CLOUDS BELOW 12,000 FEET WITH NO
SIGNIFICANT WEATHER AND/OR OBSTRUCTIONS TO VISIBILITY.

  -  STATIONS PRECEEDED BY AN ASTERISK (*) ARE NOT NWS OR FAA
     STATIONS AND ARE NOT SUBJECT TO NWS AND FAA QUALITY CONTROL.

CAZ041-042-087-122100-
LA AND ORANGE COUNTY COASTAL AREAS


CITY           SKY/WX    TMP DP  RH WIND       PRES   REMARKS
L.A. DOWNTOWN  SUNNY     84  29  13 CALM      30.07F
L.A. AIRPORT   PTSUNNY   78  42  27 W9        30.09F
LONG BEACH     SUNNY     79  37  22 CALM      30.08F

CITY           SKY/WX    TMP DP  RH WIND       PRES   REMARKS
FULLERTON      SUNNY     82  34  17 CALM      30.07F
HAWTHORNE      SUNNY     80  30  16 CALM      30.08F
*LOS ALAMITOS  MOSUNNY   78  38  23 VRB2      30.08F
*REDONDO BEACH   N/A     75  50  41 W2        30.09F
SANTA ANA      MOSUNNY   76  41  28 SW3       30.08F
STA MONICA APT SUNNY     78  45  30 SW6       30.09F
TORRANCE       MOSUNNY  100  45  15 VRB6      30.10F HX  96
*UCLA            N/A     84  28  13 CALM      30.06F

$$

CAZ547-548-048-122100-
LA COUNTY VALLEYS AND INLAND EMPIRE


CITY           SKY/WX    TMP DP  RH WIND       PRES   REMARKS
BURBANK        SUNNY     80  28  15 CALM      30.10F
VAN NUYS       SUNNY     82  31  15 E5        30.10F

CITY           SKY/WX    TMP DP  RH WIND       PRES   REMARKS
CORONA AIRPORT CLEAR     81  36  19 CALM      30.09F
*CHATSWORTH      N/A     83  34  17 S1        30.10F
CHINO          MOSUNNY   82  30  15 CALM      30.11F
MARCH AFB      SUNNY     80  20  10 VRB2      30.12F
*NORTHRIDGE      N/A     82  23  11 E3          N/A
ONTARIO        MOSUNNY   81  27  14 VRB5      30.10F
*PASADENA        N/A     82  34  17 CALM        N/A
POMONA         SUNNY     77  30  18 CALM      30.14F
RIVERSIDE      SUNNY     84  22  10 VRB3      30.09F
SAN BERNARDINO SUNNY     81  21  11 CALM      30.12F
*SAN GABRIEL     N/A     83  32  16 E2        30.14F
*SAUGUS          N/A     74  32  21 S2          N/A
*WHITEMAN AP   NOT AVBL
*WOODLAND HILL   N/A     82  27  13 NE2         N/A

$$

CAZ054-055-122100-
LA AND SAN BERNARDINO COUNTY MOUNTAINS


CITY           SKY/WX    TMP DP  RH WIND       PRES   REMARKS
*ACTON           N/A     72  26  18 W9          N/A
*BIG BEAR AIRP CLEAR     61   9  12 W6        30.36F
*BIG PINES       N/A     66  12  12 SW2         N/A
*CHILAO          N/A     72   5   7 S12         N/A
SANDBERG       SUNNY     69  28  21 NE12G20   30.29F
*WARM SPRINGS    N/A     82  62  49 E7          N/A

$$

CAZ028-029-059-060-099-122100-
ANTELOPE VALLEY AND SURROUNDING AREAS


CITY           SKY/WX    TMP DP  RH WIND       PRES   REMARKS
LANCASTER      SUNNY     67  30  25 CALM      30.23F
PALMDALE       SUNNY     65  28  24 NW5       30.24F

CITY           SKY/WX    TMP DP  RH WIND       PRES   REMARKS
29 PALMS       MOSUNNY   72  18  13 CALM      30.25F
BARSTOW/DAGGET SUNNY     70  25  18 VRB3      30.21F
BISHOP         MOSUNNY   65  20  17 VRB3      30.27F
CHINA LAKE     SUNNY     68  26  20 CALM      30.22F
EDWARDS AFB    PTSUNNY   63  29  27 CALM      30.21F
MOJAVE         SUNNY     68  28  22 NE6       30.24F
NEEDLES        SUNNY     74  29  19 VRB6      30.16F
VICTORVILLE    SUNNY     70  23  17 CALM      30.23F

$$

CAZ039-040-122100-
VENTURA AND SANTA BARBARA COUNTY COAST


CITY           SKY/WX    TMP DP  RH WIND       PRES   REMARKS
CAMARILLO      SUNNY     74  44  34 SW6       30.09
NWS OXNARD       N/A     74  51  44 W3        30.09F
OXNARD AIRPORT SUNNY     69  53  56 SW6       30.10F
*POINT MUGU    MOSUNNY   68  52  56 SW7       30.10F
SBA APT/GOLETA SUNNY     72  48  42 SW6       30.10F
*SANTA BARBARA   N/A     72  52  49 CALM      30.17F
*VENTURA         N/A     77  49  37 E3        30.07F

$$

CAZ044-045-122100-
VENTURA COUNTY VALLEYS


CITY           SKY/WX    TMP DP  RH WIND       PRES   REMARKS
*SIMI VALLEY     N/A     83  35  18 CALM      30.04F
*WESTLAKE VILL   N/A     83  40  21 CALM      30.09F
*OJAI            N/A     86  40  19 CALM      30.03F
*FILLMORE        N/A     85  44  23 CALM      29.97F

$$

CAZ053-122100-
VENTURA COUNTY MOUNTAINS


CITY           SKY/WX    TMP DP  RH WIND       PRES   REMARKS
*LOCKWOOD VLY    N/A     70   3   7 SE2         N/A
*ROSE VALLEY     N/A     79  30  17 MISG        N/A

$$

CAZ034-035-036-122100-
CENTRAL COAST AND SANTA YNEZ VALLEY


CITY           SKY/WX    TMP DP  RH WIND       PRES   REMARKS
SAN LUIS OBISP MOSUNNY   75  54  47 CALM      30.11F
SANTA MARIA    MOSUNNY   72  50  45 NW6       30.12F

CITY           SKY/WX    TMP DP  RH WIND       PRES   REMARKS
*CAL POLY SLO    N/A     72  54  53 NE17        N/A
*SANTA YNEZ    FAIR      72  41  33 CALM      30.11F

$$

CAZ037-038-051-122100-
SAN LUIS OBISPO COUNTY INTERIOR AND CUYAMA VALLEY


CITY           SKY/WX    TMP DP  RH WIND       PRES   REMARKS
*CUYAMA          N/A     74  31  21 NE3       30.12F
PASO ROBLES    SUNNY     67  51  56 CALM      30.18F

$$

CAZ032-033-061-122100-
SOUTHERN DESERTS


CITY           SKY/WX    TMP DP  RH WIND       PRES   REMARKS
BLYTHE         NOT AVBL
IMPERIAL       SUNNY     80  29  15 W3        30.09F
PALM SPRINGS   SUNNY     82  24  12 VRB3      30.12F
THERMAL        SUNNY     83  24  11 CALM      30.08F

$$

ELSEWHERE ACROSS THE WESTERN UNITED STATES AND MEXICO


CITY           SKY/WX    TMP DP  RH WIND       PRES   REMARKS
DEATH VALLEY,    N/A     71  32  23 CALM        N/A
DENVER, CO     MOSUNNY   51  30  44 E7        30.26F
GRAND CANYON,  SUNNY     66  12  12 S7        30.38F
HONOLULU, HI   PTSUNNY   81  64  57 E14       30.04R
KAHULUI, MAUI  MOSUNNY   79  59  50 VRB5      30.04R
LAKE TAHOE, CA SUNNY     51  25  36 NE3       30.34F
LAS VEGAS, NV  MOSUNNY   68  22  17 NE5       30.19F
MAMMOTH LAKES, FAIR      54  16  22 SE7       30.37F
MEXICO CITY, M SUNNY     68  16  13 N12       30.34F
PHOENIX, AZ    MOSUNNY   82  25  12 E7        30.11F
PORTLAND, OR   CLOUDY    50  49  96 SE13      30.19R
RENO, NV       PTSUNNY   52  29  41 CALM      30.29F
SALT LAKE CITY CLOUDY    31  27  85 N3        30.41F FOG
SAN DIEGO, CA  MOSUNNY   78  31  17 NW7       30.09F
SAN FRANCISCO, PTSUNNY   58  54  86 E6        30.23F
SAN JOSE, CA   CLOUDY    66  50  56 NW9       30.22F
SEATTLE, WA    PTSUNNY   53  50  89 S8        30.14R
TIJUANA, MEX   SUNNY     82  25  12 CALM      30.11F

$$

STATION/POSITION TIME  TEMP    WIND        PRES    VSBY  WAVE
                       AIR SEA DIR/SP/G                  HT/PER
                 (UTC) (F)     (DEG/KT/KT) (MB)    (MI)  (FT/S)
POINT ARGUELLO B NOT AVBL
WEST SANTA BARBA 1950   56 58  320/ 12/ 14 1019.1F        12/19
POINT CONCEPTION NOT AVBL
EAST SANTA BARBA 2000   59 59  250/  8/ 10 1019.5F
SANTA MONICA BAY 1950   60 61  330/  2/  4 1019.5F         5/19


USA.gov is the U.S. government's official web portal to all federal, state and local government web resources and services.